Lid_Strength_Index
3 4 4 4 4 4 5 6 9 3 6 13 12 13 10 9 9 7 8 7 8 9 9 9 10 10 9 8 8 10 9 9 11 10 8 8 9 10 10 12 13 13 13 13
3 3 4 4 4 4 6 6 6 3 7 15 13 11 10 9 9 8 8 8 8 8 9 10 9 9 7 7 8 9 9 11 13 11 10 8 10 10 11 11 11 13 14 13
2 3 3 4 4 3 4 7 10 6 7 10 12 12 11 11 9 8 8 8 8 9 9 9 9 9 7 7 7 7 7 10 13 14 12 10 11 10 10 9 12 12 12 12
2 2 3 4 4 3 4 6 8 7 11 9 9 10 10 12 10 7 8 8 9 9 10 9 10 9 8 7 8 7 7 11 12 12 11 10 11 11 10 11 11 12 11 11
2 2 3 4 3 3 5 7 8 9 9 9 9 9 9 11 11 8 8 9 8 8 9 9 10 8 8 9 7 8 8 11 10 11 10 10 11 10 10 10 10 10 10 10
2 2 3 3 3 3 6 6 5 8 11 10 10 10 9 9 7 7 7 7 8 8 7 6 6 6 7 7 8 9 9 10 11 13 11 11 12 11 10 10 10 10 11 9
2 2 3 3 3 3 5 4 4 7 11 11 10 9 9 8 8 8 7 6 7 6 5 6 6 6 6 7 8 7 9 10 12 13 12 16 11 8 9 9 10 9 9 8
2 3 3 3 3 2 3 3 4 6 10 10 10 9 9 7 7 7 7 6 6 5 6 8 10 10 9 9 8 8 8 9 13 15 14 13 10 9 9 10 10 8 9 9
3 3 3 3 3 2 2 3 3 4 8 9 7 9 7 8 8 7 6 5 5 5 9 10 13 13 12 12 10 8 8 8 11 13 16 17 11 8 6 7 12 7 8 8
3 3 3 3 3 2 2 3 2 4 8 7 6 8 8 7 8 8 7 6 6 6 9 11 12 12 10 13 12 11 11 11 13 13 14 12 8 7 8 13 11 7 7 8
3 3 3 3 3 2 1 3 2 4 7 6 5 5 6 7 7 9 7 7 7 8 10 11 11 11 10 11 10 10 11 13 13 12 14 16 7 7 10 7 6 6 7 7
3 3 3 3 3 2 2 4 2 2 5 6 5 4 4 5 4 6 7 6 8 8 9 10 10 11 10 11 13 8 12 10 11 11 11 7 6 6 6 6 6 6 6 8
3 3 3 3 2 2 1 2 3 4 6 6 6 6 4 4 4 3 7 6 5 6 6 8 9 11 9 12 12 10 9 7 10 10 8 7 7 7 6 5 6 6 7 8
3 3 3 3 2 2 1 2 3 4 7 10 8 4 5 4 3 3 4 4 5 6 7 9 10 11 8 10 9 10 8 7 9 10 8 8 7 7 7 7 7 8 7 7
2 3 3 2 2 1 1 2 3 3 6 10 8 6 5 4 4 4 4 5 5 6 8 11 10 9 8 9 9 10 8 8 10 10 7 7 7 7 7 7 8 8 8 8
2 3 2 2 2 1 2 5 3 3 5 7 9 7 6 5 5 6 6 6 6 6 7 8 8 7 8 10 11 8 7 7 7 7 6 7 7 7 7 8 8 8 7 7
2 2 2 2 2 1 5 6 4 4 3 8 10 9 7 6 6 7 7 7 8 7 8 8 8 8 8 10 11 7 7 6 7 7 7 8 7 8 8 8 8 8 7 7
2 2 2 2 2 1 3 3 4 3 6 7 11 10 8 6 8 8 8 8 8 9 9 8 8 8 9 11 8 7 7 8 8 8 8 7 9 9 9 8 8 8 8 8
2 2 2 1 2 4 3 4 5 5 5 9 10 11 11 7 9 9 8 9 10 10 10 9 9 11 12 9 8 7 8 8 9 9 9 8 9 9 9 9 8 9 9 9
2 2 4 10 4 3 4 5 6 8 9 8 10 10 10 9 10 10 10 11 12 12 11 9 10 11 9 8 8 7 7 8 8 10 10 10 10 10 9 9 9 8 9 9
2 5 7 3 3 5 7 11 9 11 11 10 10 9 10 8 10 11 10 12 12 13 11 11 12 12 10 9 9 9 7 8 8 7 8 8 8 9 9 10 9 9 10 11
3 3 3 4 7 9 10 12 11 11 11 11 10 9 8 9 8 10 11 12 13 14 11 12 13 11 10 10 10 10 9 8 9 8 8 8 9 9 9 10 10 11 12 14
2 4 8 9 11 15 13 15 14 13 12 10 9 9 9 9 9 12 12 13 14 12 13 13 11 10 10 10 10 11 10 10 10 11 11 11 12 12 11 13 13 13 15 15
7 9 11 11 14 12 12 11 11 10 10 9 9 10 9 11 11 12 13 13 12 15 16 14 11 11 11 11 11 11 12 12 12 13 13 13 13 13 15 15 14 15 16 17
8 9 12 13 11 12 11 11 10 10 7 8 10 10 10 12 13 12 13 14 15 14 13 12 11 11 11 11 12 12 12 13 13 12 13 13 13 13 15 14 13 14 16 16
8 10 12 12 12 13 11 10 10 8 7 8 8 11 11 12 12 13 14 14 15 13 12 12 11 11 11 12 12 12 12 12 12 11 11 12 12 12 13 13 13 15 15 16
9 11 10 11 10 11 11 9 8 7 7 10 10 12 13 12 13 13 13 13 12 12 12 11 11 11 11 11 12 12 11 11 11 11 11 12 11 12 12 13 13 12 13 15